Dewpoint
67 67 66 67 68 68 66 64 64 62 63 64 64 65 63 60 59 58 59 58 58 58 56 57 60 61 59 59 59 61 63 64 64 62 62 62 64 65 67 67 67 67 65 62 61 61 62 62 61 61 61 60 64 64 64 63 62 62 62 62 61 61 61 60 60 60 59 59 59 58 58 58 58 57 57 57 57 57 56 56 56 57 57 56 56
68 67 65 68 68 69 68 67 65 64 63 65 65 65 64 61 60 59 56 59 58 58 57 57 56 59 59 59 59 59 63 62 62 61 62 63 63 64 68 67 67 67 66 66 62 61 60 60 61 62 61 60 59 65 64 64 63 63 62 62 62 61 61 60 60 60 59 59 59 58 58 58 57 57 57 56 56 56 56 56 55 57 56 56 56
67 65 66 67 67 67 67 67 68 68 66 68 66 67 66 62 61 60 59 59 59 57 55 56 56 56 57 56 58 60 60 62 61 61 61 63 63 65 65 68 67 66 66 67 66 63 61 61 61 60 61 60 60 60 64 64 60 63 64 63 62 61 61 61 60 60 60 59 59 59 58 58 57 57 56 56 56 56 56 56 55 55 55 55 55
64 64 64 68 66 66 65 66 67 67 67 65 66 67 67 62 61 62 62 62 60 59 58 56 57 55 56 55 57 58 58 60 59 61 60 63 62 64 65 64 67 67 66 67 66 65 63 61 61 61 61 61 60 61 60 59 59 60 64 64 63 62 61 61 60 60 60 60 59 59 58 58 58 57 57 56 57 56 56 56 55 55 55 54 54
66 65 65 66 66 67 67 67 67 66 66 65 66 66 67 65 63 62 63 63 61 60 57 59 58 58 57 56 58 55 55 56 59 61 62 62 61 63 64 64 65 67 66 66 66 66 67 64 62 62 61 61 60 60 61 60 59 59 60 65 64 64 63 62 61 61 60 60 59 59 59 58 58 58 57 57 57 57 56 56 55 55 55 54 54
65 64 64 66 67 67 67 68 67 66 66 65 65 65 66 66 62 61 61 62 62 61 58 59 57 57 58 56 58 59 58 54 59 60 61 61 62 64 63 62 63 65 64 66 66 66 67 66 65 64 63 62 61 60 60 60 60 59 58 65 65 64 64 63 62 61 61 61 60 60 59 59 58 58 58 57 57 57 56 56 55 55 54 54 54
64 65 65 65 65 66 67 68 66 66 68 68 67 65 65 64 62 60 60 62 62 62 61 61 59 58 59 60 57 56 58 58 58 57 56 60 64 63 63 62 64 63 64 65 67 67 67 66 66 66 64 64 62 61 61 61 61 61 60 61 65 65 64 63 63 62 62 61 60 60 60 60 59 59 59 58 58 58 57 56 56 55 55 55 55
64 64 65 65 65 66 66 67 66 66 67 67 65 65 66 65 64 63 61 61 60 61 62 63 63 62 61 61 60 59 59 60 60 58 58 60 59 63 62 61 62 63 60 66 66 65 66 67 66 66 67 65 64 64 62 62 61 61 61 61 64 65 64 64 63 63 63 62 61 61 60 60 60 60 59 59 58 58 58 57 56 56 56 55 55
65 64 65 65 65 65 66 66 66 66 67 68 65 65 66 64 65 65 63 61 59 59 63 63 63 63 64 66 65 65 63 64 63 63 60 63 65 66 63 62 63 60 65 62 67 66 66 66 66 67 67 66 66 65 65 64 64 63 62 62 61 64 65 64 64 64 63 63 62 62 62 60 61 60 60 60 59 59 58 58 57 57 56 56 56
65 65 66 65 65 65 65 66 66 66 66 66 67 67 67 65 65 66 63 63 61 60 61 62 62 62 64 65 65 64 63 65 64 63 63 63 65 64 64 64 63 63 63 63 62 66 66 66 67 67 67 66 66 66 66 65 65 65 65 65 65 63 64 65 64 63 63 64 64 63 62 62 61 61 61 60 59 59 59 58 58 57 57 56 56
65 66 66 64 65 65 65 65 66 66 66 65 65 67 67 67 65 65 66 63 62 63 63 63 63 62 62 63 64 64 64 64 64 64 64 65 65 64 63 64 64 64 64 63 63 63 64 65 67 65 65 66 66 66 66 66 66 65 65 65 65 64 65 65 64 64 63 63 64 64 63 63 62 62 61 60 59 59 58 59 58 58 57 57 57
65 65 65 66 66 65 65 65 66 65 65 64 64 65 66 66 66 65 65 64 63 63 64 63 63 63 63 63 62 64 64 63 64 63 64 64 64 64 62 62 64 63 62 63 63 63 64 64 63 63 64 66 66 66 66 66 65 66 66 65 65 65 65 65 65 64 64 64 63 64 65 64 63 62 62 61 60 59 59 59 59 58 58 58 57
65 65 66 65 66 66 65 65 66 65 65 63 65 65 64 64 65 65 64 63 63 64 64 64 62 61 62 62 63 61 62 61 62 61 60 60 61 61 62 62 62 63 63 64 63 64 64 64 63 63 63 64 65 65 65 65 64 63 62 63 65 64 64 65 65 64 65 65 65 64 65 65 64 63 63 62 61 61 60 59 59 58 58 58 58
63 66 66 66 66 65 66 65 65 65 65 65 65 65 65 64 64 63 63 62 63 63 63 63 60 59 58 58 59 60 61 61 58 57 58 58 60 60 61 60 59 62 63 62 63 63 63 63 64 64 63 62 63 63 65 65 63 61 61 62 64 64 64 64 64 65 65 65 65 65 65 65 65 64 63 63 62 62 61 60 59 59 59 59 58
62 64 66 65 65 65 65 66 66 65 65 64 65 65 65 64 64 63 62 63 62 63 64 63 58 60 59 56 54 55 59 59 60 58 58 59 59 58 57 56 55 57 60 60 60 60 59 60 61 62 63 63 60 59 61 62 58 61 60 62 64 64 64 65 64 64 65 65 65 65 65 65 65 65 64 64 63 63 62 61 61 60 59 59 58
59 59 61 63 66 65 66 65 65 65 64 64 64 63 64 64 64 63 63 61 60 60 63 64 62 60 57 55 55 55 53 55 57 57 58 58 58 56 56 55 55 56 58 57 57 59 60 59 59 60 60 60 59 58 58 56 59 61 60 63 63 63 64 64 64 64 65 64 65 65 65 65 65 65 65 64 64 63 63 62 62 61 60 60 59
60 60 58 60 61 62 62 63 64 65 64 63 63 62 62 63 63 63 62 61 60 61 61 63 64 63 60 55 55 53 54 57 57 57 59 55 56 55 57 56 55 55 54 54 56 58 58 58 60 60 60 60 59 59 60 60 60 59 63 62 62 62 63 64 64 63 63 64 65 65 65 66 65 65 65 65 64 64 64 63 62 62 61 60 60
58 58 58 59 61 61 62 60 61 61 62 63 62 61 62 62 62 62 61 63 62 60 60 62 63 64 63 64 61 57 56 55 54 53 58 59 55 51 52 53 53 52 52 52 52 51 53 54 56 57 58 59 58 59 62 61 61 58 58 55 56 57 58 59 63 63 63 65 65 64 65 65 65 65 65 65 65 65 64 64 63 63 62 62 61
59 58 58 59 60 61 62 61 59 61 61 61 61 62 60 60 61 61 61 62 63 61 59 60 61 62 62 62 62 60 59 54 54 53 52 53 53 52 49 48 50 49 48 48 51 52 52 52 54 54 55 57 59 59 58 56 55 55 55 55 54 53 53 53 56 59 62 64 64 64 64 65 65 65 65 65 65 65 65 64 64 63 63 63 62
58 57 58 57 59 59 60 61 59 58 58 57 59 60 60 62 63 62 61 61 62 60 60 60 59 60 62 61 60 60 60 58 56 54 51 49 48 50 52 53 52 51 50 50 52 53 53 52 51 51 51 52 53 54 55 54 54 54 54 54 54 52 52 51 51 52 57 61 62 63 64 64 64 65 65 65 65 65 65 65 64 64 64 63 63
58 58 58 57 57 57 59 59 60 59 57 57 60 61 64 64 64 62 62 61 61 61 60 59 59 60 60 61 60 57 57 58 58 55 50 49 47 48 50 51 52 51 51 50 50 51 50 48 46 46 50 51 50 49 49 51 52 53 52 53 52 51 51 50 50 51 52 59 62 64 64 64 64 64 64 65 65 64 64 63 64 64 65 64 64
58 58 58 56 57 57 57 59 60 58 56 59 60 61 63 63 64 64 63 62 62 61 60 59 60 62 60 60 58 57 57 57 56 55 52 52 47 45 49 49 48 48 50 49 49 48 47 48 49 45 47 48 48 48 49 49 50 50 52 52 52 51 50 49 47 49 52 55 60 63 64 64 64 64 64 65 65 64 63 63 64 64 64 64 64
56 58 58 56 57 56 57 59 60 59 57 56 57 56 59 61 62 63 64 63 62 62 61 60 60 59 59 57 57 56 56 55 55 54 54 52 48 47 47 45 46 48 47 46 45 42 42 45 45 45 47 48 48 47 48 49 50 49 51 50 50 50 50 48 46 47 49 53 55 58 61 61 62 63 63 63 63 64 64 64 65 64 63 64 64
55 55 56 56 56 55 58 58 58 59 57 56 56 56 57 58 59 60 61 63 63 62 62 62 61 60 60 59 57 58 57 56 55 54 52 51 50 48 45 44 41 39 40 46 42 41 39 38 37 41 42 44 46 47 48 47 47 51 48 49 49 49 48 48 47 46 45 49 52 54 56 58 58 59 60 60 60 60 60 60 59 59 59 60 61
54 55 56 56 55 55 57 56 57 58 57 55 56 56 55 55 56 58 59 60 60 61 61 62 62 60 59 60 55 55 54 54 54 53 52 51 50 46 43 41 41 40 39 41 39 37 37 36 35 35 37 41 42 44 45 47 47 52 49 48 48 48 47 47 47 46 46 45 47 50 52 53 54 55 55 55 55 56 56 54 52 51 52 52 54
55 55 54 54 54 57 59 58 58 58 58 58 57 55 55 51 54 56 57 58 60 61 61 60 59 57 55 53 53 52 51 51 50 50 50 49 46 46 44 42 42 37 37 37 38 35 34 33 33 34 36 39 42 44 45 44 49 51 50 46 48 47 47 46 47 45 44 43 43 45 46 47 49 50 51 51 51 50 50 50 49 49 50 51 51
53 54 54 55 56 57 57 57 57 57 57 57 55 55 55 51 53 55 54 54 55 55 56 56 55 53 54 50 48 45 42 40 40 40 38 43 43 44 40 42 42 39 37 35 37 38 35 33 30 30 35 43 43 43 42 43 45 50 51 49 47 47 46 46 46 45 45 44 43 43 43 45 46 46 47 48 48 48 49 49 49 48 49 49 50
54 54 55 55 55 55 55 54 54 54 55 55 54 53 54 52 50 52 52 51 54 54 53 54 55 54 51 47 43 42 43 39 40 39 37 42 43 41 42 42 39 38 39 38 38 36 36 34 29 27 29 36 38 41 42 41 42 49 50 47 47 47 46 45 45 45 44 44 44 43 43 43 44 45 46 46 47 48 47 48 48 48 47 49 49
53 54 54 54 53 53 52 52 51 51 52 52 52 53 53 52 50 50 51 51 50 49 49 49 51 48 49 48 44 44 46 47 44 45 44 43 41 42 40 40 42 38 39 39 41 37 31 31 28 26 27 30 37 37 36 31 42 47 42 45 47 46 46 45 45 44 44 43 43 43 42 43 43 44 45 45 46 47 46 46 46 46 47 48 47
53 54 54 53 53 52 52 51 51 49 49 48 48 50 51 48 49 49 49 49 48 47 47 47 48 48 47 46 46 44 48 48 48 50 49 46 42 41 38 39 39 38 39 38 39 42 37 34 30 24 25 28 32 37 35 32 47 42 36 38 43 46 45 46 45 44 44 43 43 43 42 42 43 44 44 45 45 46 45 45 46 46 46 46 46
52 54 53 51 52 51 51 50 49 49 48 48 48 48 47 46 46 45 47 46 45 47 49 49 49 50 50 49 49 48 50 50 50 49 49 46 44 42 41 43 44 44 42 38 38 40 44 39 30 27 27 28 27 37 36 33 36 41 41 41 34 46 47 45 45 44 44 43 43 42 43 43 43 43 42 43 44 44 44 45 45 45 45 45 46
52 52 50 49 50 50 49 49 49 47 46 46 46 47 48 47 45 43 45 44 42 44 43 46 44 48 49 48 47 47 47 45 47 49 47 48 47 42 44 45 44 46 44 43 41 42 42 36 33 28 29 34 29 31 34 29 32 44 38 38 38 46 44 44 45 45 44 44 43 43 43 43 42 42 42 42 42 43 43 43 44 44 44 44 44
51 51 49 49 46 48 47 47 47 50 48 48 48 48 47 48 46 46 46 43 42 44 46 48 46 47 44 44 46 47 48 47 46 46 44 45 46 46 45 43 43 45 44 45 41 41 41 40 36 29 32 36 27 30 30 37 40 37 37 38 39 39 35 38 44 45 45 44 43 43 42 42 41 41 41 40 41 42 42 43 43 43 43 42 42
51 48 47 50 49 49 47 46 49 49 49 48 48 48 46 47 49 49 48 44 43 43 45 43 46 46 47 44 42 45 45 44 46 38 39 40 39 40 41 42 39 42 44 42 41 42 42 40 35 33 33 37 30 29 38 40 39 38 31 36 36 33 34 36 35 44 45 44 43 43 43 42 42 42 40 40 40 41 42 42 41 41 42 41 42
53 50 49 50 48 47 47 48 47 49 49 48 50 49 49 48 45 48 48 46 46 46 46 43 39 43 45 45 44 47 48 47 46 44 43 40 38 39 42 39 40 40 39 40 42 42 42 39 40 34 37 37 38 30 32 37 38 34 32 36 33 32 33 38 36 34 43 44 43 43 42 42 42 41 40 40 40 40 41 41 41 41 41 41 41
51 53 51 48 48 47 47 47 48 49 49 50 49 48 47 49 49 48 47 48 47 46 44 42 39 42 45 46 46 47 47 47 45 44 44 43 44 42 44 43 43 41 44 45 43 43 42 39 39 30 35 40 36 32 31 33 36 36 36 36 35 34 36 35 36 33 40 42 43 43 43 42 42 41 40 39 40 41 40 40 41 41 41 42 42
52 52 52 50 49 48 50 46 46 47 48 47 48 49 50 50 49 49 48 47 49 48 48 47 47 45 45 47 46 46 47 48 47 45 44 46 41 44 43 41 40 43 44 43 43 43 43 42 41 39 40 35 33 38 33 34 34 35 36 37 36 36 40 41 38 35 41 42 43 43 43 42 41 41 39 39 40 40 40 40 41 41 42 42 42
54 53 52 51 50 49 48 46 47 47 47 48 47 47 47 49 50 51 50 50 49 48 49 49 47 48 49 47 48 46 46 48 48 47 47 47 44 45 43 41 39 43 45 44 44 44 42 40 43 41 42 39 39 41 37 38 40 38 38 38 38 39 39 42 40 37 37 34 41 43 45 42 42 40 40 41 40 39 40 41 41 41 42 42 41
55 54 53 51 52 51 48 49 49 50 50 50 50 50 49 49 50 51 52 51 51 51 50 49 49 49 49 48 50 50 48 48 51 50 50 48 48 47 45 46 41 44 45 44 42 43 44 43 42 43 42 42 43 41 35 38 38 37 40 40 40 37 41 40 39 36 39 40 38 38 37 37 39 37 38 39 39 40 40 41 41 42 43 41 41
55 53 53 52 52 51 52 52 52 53 53 53 52 53 52 54 55 55 55 55 53 53 54 51 52 51 51 50 50 50 50 49 51 50 50 51 48 47 46 46 44 45 45 44 45 43 43 44 41 41 41 43 41 42 38 39 40 39 37 41 41 40 40 40 39 37 40 39 38 35 38 39 38 39 39 39 39 41 42 41 42 43 42 41 40
56 53 53 53 53 52 53 54 54 55 56 55 55 55 55 55 56 56 56 55 56 55 55 55 55 54 53 53 52 51 52 53 50 50 49 48 49 47 48 46 45 45 45 44 44 43 42 43 41 43 41 41 41 42 41 41 41 39 41 43 41 40 38 38 35 35 35 38 38 35 32 36 34 38 35 35 38 42 42 42 42 42 41 40 40
55 55 54 54 53 54 55 55 56 58 58 58 57 51 52 55 56 56 57 56 55 55 56 56 56 56 56 56 55 54 51 50 48 45 44 44 45 49 48 47 45 44 45 45 44 44 44 42 40 42 42 42 41 44 43 43 43 44 42 42 39 38 38 37 36 36 35 39 38 36 32 32 36 37 36 35 36 41 40 40 41 40 40 40 40
56 56 56 55 56 56 55 56 57 58 58 57 47 45 46 48 54 56 56 56 57 57 56 57 56 55 56 54 56 54 53 50 50 44 42 42 40 39 39 40 44 53 46 44 44 45 43 43 43 42 41 42 43 43 42 41 42 42 40 40 39 38 37 34 32 35 37 40 38 36 34 36 36 33 32 34 37 40 39 40 39 40 40 40 40
58 58 57 56 55 56 55 55 57 57 57 51 44 44 44 44 50 55 56 56 57 56 56 56 55 55 56 57 57 57 55 54 52 51 45 41 39 37 36 36 36 36 37 47 46 44 45 43 43 43 42 42 42 43 41 42 41 40 40 40 39 37 36 34 33 33 36 39 37 35 34 36 36 35 36 36 37 39 37 38 37 39 40 40 40
58 56 56 56 55 56 56 55 56 57 58 45 44 43 43 43 44 52 56 56 56 58 57 57 57 57 56 56 57 57 54 53 51 52 50 45 39 37 37 37 37 36 33 33 35 47 44 43 42 41 41 42 41 41 45 43 42 41 39 36 37 36 36 34 33 32 36 38 37 36 34 35 35 34 35 36 37 38 39 39 39 39 40 39 39
56 56 57 56 55 55 56 56 55 56 55 46 43 43 42 41 41 48 57 57 58 57 57 57 56 56 56 55 54 54 55 52 51 52 50 46 43 40 39 38 38 40 34 33 32 32 36 42 41 40 44 44 41 44 44 43 41 39 37 36 38 36 35 34 37 36 38 39 38 38 35 34 34 34 32 34 35 38 38 38 39 39 38 39 39
57 56 56 55 56 57 57 57 55 55 54 43 43 42 41 40 39 47 57 57 57 56 55 55 55 54 55 55 55 53 53 53 52 51 49 46 44 42 40 40 41 41 44 46 47 46 44 44 43 44 45 44 43 43 42 41 42 41 40 39 39 38 38 39 39 40 39 36 38 39 35 33 35 33 34 34 35 35 37 36 38 38 39 39 40
56 57 57 57 57 57 57 57 56 55 57 40 41 41 40 39 42 57 57 56 55 54 54 54 54 54 53 55 54 53 52 50 42 41 42 44 43 43 43 43 44 45 41 38 36 37 43 45 45 45 44 43 38 42 41 37 36 38 37 36 36 36 35 34 31 33 32 34 36 34 35 34 36 34 34 35 35 34 35 36 35 39 40 40 40
56 56 56 57 57 57 57 56 56 55 55 43 39 39 39 38 45 51 53 55 55 53 53 53 51 51 52 51 51 50 48 46 39 37 38 40 44 44 43 44 44 42 40 38 36 36 35 35 34 34 34 34 34 34 34 34 39 37 33 31 32 33 31 29 30 30 31 33 33 34 34 32 34 34 34 34 34 33 33 34 37 38 40 40 39
54 55 55 55 56 56 56 56 54 56 54 44 38 38 38 39 47 52 50 50 51 51 50 50 48 45 45 44 48 47 45 42 36 36 37 41 44 43 44 43 43 43 42 41 40 39 35 35 34 34 34 34 34 35 35 36 35 36 34 30 33 31 32 32 29 31 32 32 32 35 35 32 33 33 32 32 33 33 34 34 35 38 39 38 38
55 55 55 55 55 55 55 56 54 54 54 45 38 38 39 40 49 51 48 48 49 48 47 46 45 43 43 42 40 43 43 41 36 37 37 40 44 44 44 43 41 42 42 42 43 42 42 41 40 40 39 36 37 38 39 35 36 37 35 35 34 33 31 31 32 32 31 32 33 37 33 31 32 32 31 31 30 31 33 33 34 34 34 33 34